Weather History for Petersburg, WV

Change the Weather History Date:

Saturday, April 28, 2012

  Actual Average (KEKN) Record (KEKN)
Temperature  
Mean Temperature 48 °F 53 °F  
Max Temperature 60 °F 67 °F 89 °F (1986)
Min Temperature 36 °F 40 °F 22 °F (1934)
Degree Days  
Heating Degree Days 17 12  
Month to date heating degree days 440  
Since 1 July heating degree days 5541  
Cooling Degree Days 0 0  
Month to date cooling degree days 0  
Year to date cooling degree days 0  
Moisture  
Dew Point 35 °F    
Average Humidity 65    
Maximum Humidity 90    
Minimum Humidity 38    
Precipitation  
Precipitation 0.20 in 0.13 in 1.56 in (2002)
Month to date precipitation 3.54  
Year to date precipitation 13.83  
Snow  
Snow 0.00 in - - ()
Month to date snowfall  
Since 1 September snowfall  
Snow Depth -    
Sea Level Pressure  
Sea Level Pressure 30.21 in    
Wind  
Wind Speed 2 mph (NE)    
Max Wind Speed 8 mph    
Max Gust Speed -    
Visibility 10 miles    
Events Rain , Thunderstorm    
T = Trace of Precipitation, MM = Missing Value Source: NWS Daily Summary

Daily Weather History Graph

Daily Weather History Graph

Search for Another Location

Airport:

Trip Planner

Search our weather history database for the weather conditions in past years. The results will help you decide how hot, cold, wet, or windy it might be!

Date:

Astronomy

Apr. 28, 2012 Rise Set
Actual Time 6:21 AM EDT 8:06 PM EDT
Civil Twilight 5:53 AM EDT 8:35 PM EDT
Nautical Twilight 5:18 AM EDT 9:10 PM EDT
Astronomical Twilight 4:41 AM EDT 9:47 PM EDT
Moon 11:59 AM EDT (4/28) 1:30 AM EDT (4/28)
Length of Visible Light 14h 42m
Length of Day
13h 45m
Waxing Crescent, 42% of the Moon is Illuminated
Apr 28
Waxing Crescent
Apr 29
First Quarter
May 5
Full
May 12
Last Quarter
May 20
New

Hourly Weather History & Observations

Time (EDT) Temp. Windchill Dew Point Humidity Pressure Visibility Wind Dir Wind Speed Gust Speed Precip Events Conditions
12:15 AM 41.5 °F 39.6 °F 32.0 °F 69% 30.24 in 10.0 mi West 3.5 mph - N/A   Clear
12:35 AM 39.6 °F 36.3 °F 32.9 °F 77% 30.24 in 10.0 mi NW 4.6 mph - N/A   Clear
12:55 AM 41.2 °F 39.2 °F 33.1 °F 73% 30.23 in 10.0 mi East 3.5 mph - N/A   Clear
1:15 AM 43.5 °F - 32.0 °F 64% 30.22 in 10.0 mi Calm Calm - N/A   Clear
1:35 AM 39.0 °F - 32.2 °F 76% 30.22 in 10.0 mi Calm Calm - N/A   Clear
1:55 AM 39.6 °F - 32.2 °F 75% 30.22 in 10.0 mi Calm Calm - N/A   Clear
2:15 AM 39.4 °F - 32.0 °F 75% 30.22 in 10.0 mi Calm Calm - N/A   Clear
2:35 AM 38.3 °F - 31.6 °F 77% 30.23 in 10.0 mi Calm Calm - N/A   Clear
2:55 AM 36.9 °F - 30.9 °F 79% 30.23 in 10.0 mi Calm Calm - N/A   Scattered Clouds
3:15 AM 37.4 °F - 31.6 °F 80% 30.23 in 10.0 mi Calm Calm - N/A   Mostly Cloudy
3:35 AM 38.7 °F - 32.4 °F 78% 30.24 in 10.0 mi Calm Calm - N/A   Mostly Cloudy
3:55 AM 39.0 °F - 33.1 °F 79% 30.24 in 10.0 mi Calm Calm - N/A   Mostly Cloudy
4:15 AM 39.9 °F - 33.6 °F 78% 30.25 in 10.0 mi Calm Calm - N/A   Scattered Clouds
4:35 AM 41.0 °F - 35.1 °F 79% 30.26 in 10.0 mi Calm Calm - N/A   Mostly Cloudy
4:55 AM 41.9 °F - 35.2 °F 77% 30.26 in 10.0 mi Calm Calm - N/A   Mostly Cloudy
5:15 AM 41.9 °F - 35.2 °F 77% 30.28 in 10.0 mi Calm Calm - N/A   Mostly Cloudy
5:35 AM 41.7 °F - 35.8 °F 79% 30.29 in 10.0 mi Calm Calm - N/A   Overcast
5:55 AM 41.7 °F - 34.0 °F 74% 30.29 in 10.0 mi Calm Calm - N/A   Mostly Cloudy
6:15 AM 41.7 °F - 34.5 °F 76% 30.28 in 10.0 mi Calm Calm - N/A   Scattered Clouds
6:35 AM 41.7 °F - 34.3 °F 75% 30.31 in 10.0 mi Calm Calm - N/A   Mostly Cloudy
6:55 AM 41.5 °F - 33.6 °F 73% 30.31 in 10.0 mi Calm Calm - N/A   Mostly Cloudy
7:15 AM 40.8 °F - 34.5 °F 78% 30.30 in 10.0 mi Calm Calm - N/A   Scattered Clouds
7:35 AM 40.8 °F - 34.0 °F 77% 30.29 in 10.0 mi Calm Calm - N/A   Scattered Clouds
7:55 AM 41.4 °F - 32.5 °F 71% 30.29 in 10.0 mi Calm Calm - N/A   Scattered Clouds
8:15 AM 42.3 °F - 31.8 °F 67% 30.30 in 10.0 mi Calm Calm - N/A   Mostly Cloudy
9:35 AM 46.6 °F - 30.6 °F 54% 30.29 in 10.0 mi Calm Calm - N/A   Scattered Clouds
9:55 AM 48.2 °F - 29.8 °F 49% 30.29 in 10.0 mi Calm Calm - N/A   Scattered Clouds
10:15 AM 47.7 °F - 26.4 °F 44% 30.30 in 10.0 mi Calm Calm - N/A   Overcast
10:35 AM 48.0 °F - 26.1 °F 42% 30.27 in 10.0 mi Calm Calm - N/A   Overcast
10:55 AM 48.7 °F - 27.5 °F 44% 30.26 in 10.0 mi Calm Calm - N/A   Light Drizzle
11:15 AM 50.4 °F - 30.7 °F 47% 30.26 in 10.0 mi Calm Calm - N/A   Mostly Cloudy
11:35 AM 51.3 °F - 30.4 °F 45% 30.25 in 10.0 mi Calm Calm - N/A   Scattered Clouds
11:55 AM 53.2 °F - 30.6 °F 42% 30.24 in 10.0 mi Calm Calm - N/A   Mostly Cloudy
12:15 PM 55.6 °F - 31.6 °F 40% 30.22 in 10.0 mi East 3.5 mph - N/A   Mostly Cloudy
12:35 PM 56.8 °F - 32.5 °F 40% 30.20 in 10.0 mi ENE 5.8 mph - N/A   Mostly Cloudy
12:55 PM 55.4 °F - 32.9 °F 43% 30.21 in 10.0 mi ESE 5.8 mph - N/A   Mostly Cloudy
1:15 PM 56.5 °F - 33.4 °F 42% 30.21 in 10.0 mi SSE 5.8 mph - N/A   Overcast
1:35 PM 57.0 °F - 33.1 °F 40% 30.19 in 10.0 mi SE 5.8 mph - N/A   Overcast
1:55 PM 59.5 °F - 34.0 °F 38% 30.18 in 10.0 mi Calm Calm - N/A   Overcast
2:15 PM 59.2 °F - 34.5 °F 40% 30.17 in 10.0 mi ESE 4.6 mph - N/A   Overcast
2:35 PM 59.7 °F - 35.6 °F 41% 30.16 in 10.0 mi ESE 3.5 mph - N/A   Overcast
2:55 PM 59.2 °F - 34.7 °F 40% 30.14 in 10.0 mi ESE 4.6 mph - N/A   Overcast
3:15 PM 60.3 °F - 36.0 °F 40% 30.13 in 10.0 mi ENE 4.6 mph - N/A   Overcast
3:35 PM 60.8 °F - 35.1 °F 38% 30.12 in 10.0 mi Calm Calm - N/A   Overcast
3:55 PM 60.1 °F - 36.1 °F 41% 30.12 in 10.0 mi Calm Calm - N/A   Overcast
4:15 PM 59.2 °F - 36.3 °F 43% 30.16 in 10.0 mi North 8.1 mph - N/A   Overcast
4:35 PM 56.3 °F - 42.4 °F 60% 30.12 in 7.0 mi ESE 5.8 mph - 0.01 in Rain Light Rain
4:55 PM 53.6 °F - 44.8 °F 72% 30.11 in 7.0 mi SSE 3.5 mph - 0.04 in Rain Light Rain
5:15 PM 53.6 °F - 47.7 °F 80% 30.12 in 10.0 mi Calm Calm - N/A Rain Light Rain
5:35 PM 53.8 °F - 44.8 °F 72% 30.11 in 10.0 mi North 5.8 mph - N/A   Overcast
5:55 PM 53.4 °F - 41.7 °F 65% 30.12 in 10.0 mi North 5.8 mph - N/A   Mostly Cloudy
6:15 PM 52.0 °F - 40.1 °F 64% 30.13 in 10.0 mi North 5.8 mph - N/A   Overcast
6:35 PM 51.3 °F - 39.2 °F 63% 30.13 in 10.0 mi North 5.8 mph - N/A   Overcast
6:55 PM 51.1 °F - 38.8 °F 63% 30.12 in 10.0 mi Calm Calm - N/A   Overcast
7:15 PM 50.2 °F - 39.2 °F 66% 30.12 in 10.0 mi Calm Calm - N/A   Overcast
7:35 PM 48.4 °F - 38.8 °F 70% 30.13 in 10.0 mi North 4.6 mph - 0.01 in Rain Light Rain
7:55 PM 46.6 °F - 39.7 °F 77% 30.15 in 10.0 mi NW 5.8 mph - 0.02 in Rain Light Rain
8:15 PM 45.7 °F 43.4 °F 39.7 °F 80% 30.14 in 5.0 mi WNW 4.6 mph - 0.05 in Rain Rain
8:35 PM 45.5 °F - 41.0 °F 84% 30.13 in 10.0 mi Calm Calm - 0.06 in Rain Light Rain
8:55 PM 45.7 °F - 40.5 °F 82% 30.14 in 10.0 mi Calm Calm - 0.06 in Rain Light Rain
9:15 PM 44.8 °F - 40.5 °F 85% 30.14 in 10.0 mi Calm Calm - N/A Rain Light Rain
9:35 PM 44.4 °F - 40.6 °F 87% 30.15 in 3.0 mi Calm Calm - 0.02 in Rain , Thunderstorm Heavy Thunderstorms and Rain
9:55 PM - - - N/A% - - North - - N/A   Unknown
10:15 PM - - - N/A% - - North - - N/A   Unknown
10:35 PM - - - N/A% - - North - - N/A   Unknown
10:55 PM 43.2 °F - 40.5 °F 90% 30.16 in - Calm Calm - N/A Rain Light Rain
11:15 PM 41.5 °F 38.6 °F 38.8 °F 90% 30.17 in 7.0 mi North 4.6 mph - 0.01 in   Light Drizzle
11:35 PM 39.7 °F 35.6 °F 36.1 °F 87% 30.18 in 5.0 mi NNW 5.8 mph - 0.01 in Rain Light Rain
11:55 PM 40.5 °F 37.3 °F 37.2 °F 88% 30.19 in 5.0 mi North 4.6 mph - 0.06 in Rain Light Rain